Location: ????????
(56.1167°N, 38.6333°E)
Time: 21:41:42
(UTC+00:00)

ISS - Pass Details

Date: 18 November 2025
Orbit: 416 x 421 km, 51.6° (Epoch: 06 December)

Event Time Altitude Azimuth Distance (km) Brightness Sun altitude
Rises 14:50:29 0° 221° (SW) 2,363 1.1 -13.2°
Reaches altitude 10° 14:52:55 10° 205° (SSW) 1,500 -0.4 -13.6°
Maximum altitude 14:55:29 21° 155° (SSE) 1,017 -1.9 -13.9°
Enters shadow 14:56:44 17° 125° (SE) 1,147 -1.9 -14.1°
